Location: Bacea
(45.9500°N, 22.6667°E)
Time: 14:40:24
(UTC+00:00)

Envisat - Pass Details

Date: 28 January 2022
Orbit: 764 x 765 km, 98.2° (Epoch: 15 May)

Event Time Altitude Azimuth Distance (km) Brightness Sun altitude
Rises 03:03:30 0° 17° (NNE) 3,242 6.5 -30.0°
Reaches altitude 10° 03:05:52 10° 23° (NNE) 2,311 5.8 -29.6°
Maximum altitude 03:10:51 53° 100° (E) 940 3.7 -28.8°
Drops below altitude 10° 03:15:47 10° 177° (S) 2,296 5.5 -27.9°
Sets 03:18:08 0° 182° (S) 3,218 6.2 -27.5°
